Voltar ao catálogo

FENGYUN 1C DEB

AtivoSSO
NORAD 31752·DEBRIS·🇨🇳 China

Lançado May 10, 1999 de Taiyuan Satellite Launch Center

Loading…

Próximas Passagens (próximas 24 horas)

TLE

AtualizadoSource: Space-Track

Época: Sep 11, 2026, 11:04 UTC

1 31752U 99025CFB 26254.46131401  .00001323  00000-0  61494-3 0  9998
2 31752  98.9583 324.8026 0350873 305.1154  51.7582 13.94582436973903

Acompanhe FENGYUN 1C DEB em tempo real com AllMySat

Download on the App Store